Regional Weather Roundup
Issued by NWS

Home | Current Version | Previous Version | Graphics & Text | Print | Product List | Glossary Off
Versions: 1 2 3 4 5 6 7 8 9 10 11 12 13 14 15 16 17 18 19 20 21 22 23 24 25 26 27 28 29 30 31 32 33 34 35 36 37 38 39 40 41 42 43 44 45 46 47 48 49 50

000
ASUS43 KMPX 020510
RWRMN
WEATHER ROUNDUP FOR MINNESOTA
NATIONAL WEATHER SERVICE TWIN CITIES/CHANHASSEN MN
1200 AM CDT SUN AUG 02 2015


NOTE: "FAIR" INDICATES FEW OR NO CLOUDS BELOW 12,000 FEET WITH NO
SIGNIFICANT WEATHER AND/OR OBSTRUCTIONS TO VISIBILITY. N/A MEANS
CURRENT SKY AND/OR WEATHER CONDITIONS ARE NOT AVAILABLE.

MNZ060>063-068>070-020600-
   Twin Cities Metro

CITY           SKY/WX    TMP DP  RH WIND       PRES   REMARKS
TWIN CITIES    PTCLDY    78  66  66 SW12      29.77S
ST PAUL        PTCLDY    76  67  73 SW10      29.77S
CRYSTAL        PTCLDY    79  65  62 SW12      29.75S
BLAINE         PTCLDY    79  66  65 SW9       29.76S
LAKEVILLE      LGT RAIN  72  66  83 SW5       29.79S
EDEN PRAIRIE   PTCLDY    74  65  73 SW10      29.77S
SOUTH ST PAUL  PTCLDY    77  65  66 SW10      29.77S
LAKE ELMO      LGT RAIN  73  68  83 SW7       29.79R
$$
MNZ001>005-007-008-013>017-022>024-027-028-020600-
   Northwest Minnesota

CITY           SKY/WX    TMP DP  RH WIND       PRES   REMARKS
BEMIDJI        PTCLDY    62  58  86 SW5       29.69F
HALLOCK        MOCLDY    68  63  83 N22G35    29.69R
ROSEAU         CLOUDY    63  57  82 N28G67    29.72R VSB 1/2
WARROAD        CLOUDY    66  63  88 N21G26    29.69R
THIEF RVR FALL CLOUDY    68  63  83 S6        29.66F
CROOKSTON      MOCLDY    66  63  88 S6        29.66F
FOSSTON        PTCLDY    61  59  94 S6        29.69F
DETROIT LAKES  CLEAR     68  64  88 S3        29.72F
MOORHEAD       CLEAR     70  64  83 SE7       29.67F
PARK RAPIDS    CLEAR     65  59  81 S3        29.71F
MAHNOMEN       FAIR      65  61  87 S5        29.68F
$$
MNZ006-009>011-018-025>026-020600-
   North Central Minnesota

CITY           SKY/WX    TMP DP  RH WIND       PRES   REMARKS
BAUDETTE       MOCLDY    64  58  80 SW7       29.63F
INTL FALLS     MOCLDY    58  54  86 CALM      29.64F
WASKISH        MOCLDY    68  61  77 S3        29.66F
BIG FORK       MOCLDY    61  57  88 CALM      29.69F
LONGVILLE      CLEAR     61  59  94 CALM      29.71F
GRAND RAPIDS   PTCLDY    63  55  77 S5        29.71F
CRANE LAKE     MOCLDY    57  55  94 S5        29.68F
ORR            CLOUDY    63  54  72 CALM      29.65F
COOK           CLOUDY    61  55  82 CALM      29.69F
WALKER         FAIR      64  59  84 SW3       29.69F
$$
MNZ012-019>021-037-020600-
   Northeast Minnesota

CITY           SKY/WX    TMP DP  RH WIND       PRES   REMARKS
DULUTH         CLEAR     65  57  75 W7        29.73F
ELY            PTCLDY    63  54  72 SW3       29.70F
HIBBING        MOCLDY    62  56  80 S5        29.71F
EVELETH        MOCLDY    64  55  72 W3        29.72F
DULUTH HARBOR  CLEAR     68  63  83 CALM      29.71F
TWO HARBORS    PTCLDY    70  61  73 W6        29.69F
SILVER BAY     PTCLDY    59  54  82 CALM      29.70F
GRAND MARAIS     N/A     47  42  83 VRB5      29.66F
G MARAIS ARPRT CLEAR     61  48  63 SW3       29.72F
$$
MNZ029>031-032-039>041-046>048-054>057-064-020600-
   West Central Minnesota

CITY           SKY/WX    TMP DP  RH WIND       PRES   REMARKS
FERGUS FALLS   CLEAR     72  68  88 E3        29.70F
WHEATON        CLEAR     68  63  83 S6        29.73S
MORRIS         CLEAR     68  64  88 S5        29.72F
ALEXANDRIA     CLEAR     72  66  81 SW8       29.75F
ELBOW LAKE     FAIR      70  67  90 S5        29.72F
WADENA         CLEAR     66  63  88 CALM      29.73F
GLENWOOD       CLEAR     70  64  83 SW6       29.76F
APPLETON       CLEAR     73  63  68 S5        29.73F
BENSON         CLEAR     70  63  78 S5        29.74F
ORTONVILLE     CLEAR     72  63  73 CALM      29.73S
MADISON        CLEAR     72  63  73 SW6       29.73F
WILLMAR        FAIR      72  66  83 CALM      29.77F
$$
MNZ033>034-036-042>043-049>051-058-059-020600-
   Central Minnesota

CITY           SKY/WX    TMP DP  RH WIND       PRES   REMARKS
ST CLOUD       CLEAR     73  67  81 SW9       29.74F
SAUK CENTRE    FAIR      69  65  89 S6        29.75S
PAYNESVILLE    CLEAR     70  64  81 SE9       29.76F
AITKIN         CLEAR     64  59  82 CALM      29.72F
PINE RIVER     CLEAR     61  59  94 CALM      29.76F
BRAINERD       CLEAR     68  63  84 CALM      29.73F
STAPLES        CLEAR     66  63  88 CALM      29.73F
LONG PRAIRIE   FAIR      70  64  83 S7        29.75S
LITTLE FALLS   CLEAR     70  64  83 CALM      29.74S
LITCHFIELD     CLEAR     73  68  83 SW3       29.78S
BUFFALO        CLEAR     74  64  71 S8        29.77S
MAPLE LAKE     CLEAR     73  68  83 S6        29.77S
$$
MNZ037-044-045-052-053-020600-
   East Central Minnesota

CITY           SKY/WX    TMP DP  RH WIND       PRES   REMARKS
PRINCETON      CLEAR     72  66  83 CALM      29.75S
MORA           CLEAR     64  63  94 CALM      29.75F
CAMBRIDGE      CLEAR     73  63  68 S3        29.73F
RUSH CITY      CLEAR     67  62  83 S6        29.74F
MOOSE LAKE     CLEAR     63  61  94 CALM      29.72F
HINCKLEY       FAIR      64  63  94 CALM      29.74F
CLOQUET        CLEAR     68  57  68 SW7       29.73F
MCGREGOR       CLEAR     66  61  82 CALM      29.74F
$$
MNZ071>073-080-081-089-090-097-098-020600-
   Southwest Minnesota

CITY           SKY/WX    TMP DP  RH WIND       PRES   REMARKS
MONTEVIDEO     CLEAR     72  64  78 S3        29.76F
GRANITE FALLS  PTCLDY    68  64  87 S6        29.76F
CANBY          CLEAR     75  62  64 SW13G22   29.77S
MARSHALL       CLEAR     75  63  64 SW16      29.78F
REDWOOD FALLS  PTCLDY    72  65  78 S12       29.76F
OLIVIA         PTCLDY    70  61  73 S8        29.77F
PIPESTONE      CLEAR     70  66  88 SW10G16   29.83F
WINDOM         PTCLDY    72  66  83 S8        29.83F
WORTHINGTON    PTCLDY    72  63  73 SW13G22   29.85S
JACKSON        CLEAR     72  68  88 SW10      29.85F
TRACY          PTCLDY    73  66  78 SW16G22   29.80F
SLAYTON        PTCLDY    71  66  84 SW14      29.83F
$$
MNZ065>067-074>077-082>085-091>093-020600-
   South Central Minnesota

CITY           SKY/WX    TMP DP  RH WIND       PRES   REMARKS
MANKATO        PTCLDY    73  64  73 SW16      29.81S
NEW ULM        CLEAR     72  64  78 SW9       29.79F
ST JAMES       CLEAR     73  68  83 S9        29.81F
FAIRMONT       CLEAR     72  63  73 SW9       29.84S
GLENCOE        PTCLDY    73  66  78 S8        29.78F
FARIBAULT      PTCLDY    72  66  83 SW7       29.82S
OWATONNA       PTCLDY    72  66  83 SW6       29.83S
WASECA         CLEAR     70  64  83 SW8       29.84F
ALBERT LEA     CLEAR     73  66  78 SW7       29.84F
$$
MNZ078>079-086>088-094>096-020600-
   Southeast Minnesota

CITY           SKY/WX    TMP DP  RH WIND       PRES   REMARKS
ROCHESTER      PTCLDY    71  67  87 SW13      29.84F
RED WING       CLEAR     77  66  69 W12G18    29.77R
STANTON        CLEAR     73  66  80 SW7       29.79R
DODGE CENTER   PTCLDY    72  64  78 SW12G18   29.84R
WINONA         CLEAR     77  68  73 SW6       29.79F
AUSTIN         PTCLDY    72  66  83 SW9       29.85S
PRESTON        CLEAR     70  66  87 S9        29.86F
$$
ABBREVIATIONS USED IN REMARKS
   TC - TEMPERATURES IN CELSIUS
  WCI - WIND CHILL INDEX
   HX - HEAT INDEX
  VSB - VISIBILITY
$$



USA.gov is the U.S. government's official web portal to all federal, state and local government web resources and services.